TimeEDT,TemperatureF,Dew PointF,Humidity,Sea Level PressureIn,VisibilityMPH,Wind Direction,Wind SpeedMPH,Gust SpeedMPH,PrecipitationIn,Events,Conditions,WindDirDegrees,DateUTC
12:56 AM,50.0,30.9,48,29.98,10.0,NNW,12.7,21.9,N/A,,Overcast,340,2013-05-14 04:56:00
1:56 AM,50.0,32.0,50,29.97,10.0,NNW,11.5,18.4,N/A,,Overcast,330,2013-05-14 05:56:00
2:56 AM,50.0,32.0,50,29.98,10.0,NNW,11.5,17.3,N/A,,Overcast,340,2013-05-14 06:56:00
3:56 AM,48.9,33.1,54,29.97,10.0,North,8.1,-,N/A,,Overcast,350,2013-05-14 07:56:00
4:56 AM,48.9,32.0,52,29.97,10.0,NNW,8.1,-,N/A,,Overcast,340,2013-05-14 08:56:00
5:56 AM,48.9,33.1,54,29.98,10.0,NNW,9.2,-,N/A,,Overcast,340,2013-05-14 09:56:00
6:56 AM,48.9,34.0,56,30.00,10.0,NNW,6.9,-,0.00,Rain,Light Rain,340,2013-05-14 10:56:00
7:30 AM,44.6,37.4,76,30.00,10.0,Calm,Calm,-,0.01,Rain,Light Rain,0,2013-05-14 11:30:00
7:48 AM,44.6,39.2,81,30.00,10.0,NW,6.9,-,0.01,Rain,Light Rain,310,2013-05-14 11:48:00
7:56 AM,45.0,39.0,80,30.01,10.0,NW,4.6,-,0.01,Rain,Light Rain,310,2013-05-14 11:56:00
8:56 AM,48.9,35.1,59,30.01,10.0,North,15.0,20.7,0.01,,Overcast,360,2013-05-14 12:56:00
9:56 AM,52.0,37.9,59,30.00,10.0,North,17.3,23.0,N/A,,Scattered Clouds,10,2013-05-14 13:56:00
10:56 AM,54.0,35.1,49,30.01,10.0,North,13.8,23.0,N/A,,Partly Cloudy,360,2013-05-14 14:56:00
11:56 AM,53.1,35.1,50,30.03,10.0,North,12.7,23.0,N/A,,Clear,350,2013-05-14 15:56:00
12:56 PM,54.0,34.0,47,30.01,10.0,North,10.4,17.3,N/A,,Clear,350,2013-05-14 16:56:00
1:56 PM,54.0,30.0,40,30.01,10.0,North,10.4,-,N/A,,Scattered Clouds,350,2013-05-14 17:56:00
2:56 PM,54.0,30.9,41,30.01,10.0,NW,5.8,-,N/A,,Overcast,310,2013-05-14 18:56:00
3:56 PM,51.1,37.0,59,30.00,10.0,WSW,6.9,-,0.00,Rain,Light Rain,240,2013-05-14 19:56:00
4:56 PM,54.0,37.0,53,29.99,10.0,SW,12.7,20.7,0.00,,Partly Cloudy,220,2013-05-14 20:56:00
5:56 PM,54.0,37.0,53,29.98,10.0,SW,13.8,-,N/A,,Mostly Cloudy,230,2013-05-14 21:56:00
6:56 PM,52.0,37.9,59,29.99,10.0,WSW,12.7,-,N/A,,Scattered Clouds,240,2013-05-14 22:56:00
7:56 PM,52.0,39.0,61,29.99,10.0,WSW,9.2,-,N/A,,Mostly Cloudy,250,2013-05-14 23:56:00
8:56 PM,50.0,39.0,66,30.01,10.0,WSW,6.9,-,N/A,,Clear,250,2013-05-15 00:56:00
9:56 PM,51.1,39.9,66,30.03,10.0,West,4.6,-,N/A,,Overcast,260,2013-05-15 01:56:00
10:56 PM,51.1,37.0,59,30.03,10.0,West,5.8,-,N/A,,Overcast,270,2013-05-15 02:56:00
11:56 PM,48.9,34.0,56,30.04,10.0,West,3.5,-,N/A,,Mostly Cloudy,260,2013-05-15 03:56:00